Location: Niedergestelen
(46.3129°N, 7.7822°E)
Time: 06:14:13
(UTC+00:00)

Cosmos 1943 Rocket - Pass Details

Date: 01 December 2020
Orbit: 811 x 844 km, 71.0° (Epoch: 18 January)

Event Time Altitude Azimuth Distance (km) Brightness Sun altitude
Rises 17:53:15 0° 325° (NW) 3,361 5.7 -21.6°
Reaches altitude 10° 17:55:54 10° 316° (NW) 2,429 5.0 -22.0°
Maximum altitude 18:00:44 31° 255° (WSW) 1,408 4.0 -22.9°
Drops below altitude 10° 18:05:35 10° 195° (SSW) 2,434 4.8 -23.7°
Sets 18:08:15 0° 185° (S) 3,368 5.5 -24.2°
